EN

Hourly Weather Bolshoe Frolovo

Today, 21 October, Wednesday

Time Temperature Precipitation Wind Pressure Humidity
00:00 0°C° 0 mm 4 mps 745 mmHg 87%
01:00 0°C° 0 mm 4 mps 745 mmHg 86%
02:00 0°C° 0 mm 5 mps 745 mmHg 86%
03:00 0°C° 0 mm 5 mps 745 mmHg 86%
04:00 -1°C° 0 mm 5 mps 745 mmHg 87%
05:00 -1°C° 0 mm 5 mps 745 mmHg 87%
06:00 -2°C° 0 mm 5 mps 745 mmHg 88%
07:00 -1°C° 0 mm 5 mps 745 mmHg 83%
08:00 -2°C° 0 mm 6 mps 746 mmHg 78%
09:00 -1°C° 0 mm 7 mps 746 mmHg 73%
10:00 -1°C° 0 mm 7 mps 746 mmHg 67%
11:00 0°C° 0 mm 7 mps 746 mmHg 60%
12:00 0°C° 0 mm 8 mps 747 mmHg 54%
13:00 0°C° 0 mm 8 mps 747 mmHg 58%
14:00 -1°C° 0 mm 8 mps 747 mmHg 62%
15:00 -1°C° 0 mm 8 mps 748 mmHg 65%
16:00 -1°C° 0 mm 7 mps 748 mmHg 68%
17:00 -2°C° 0 mm 7 mps 748 mmHg 70%
18:00 -3°C° 0 mm 6 mps 748 mmHg 72%
19:00 -3°C° 0 mm 6 mps 748 mmHg 75%
20:00 -3°C° 0 mm 6 mps 748 mmHg 78%
21:00 -4°C° 0 mm 5 mps 748 mmHg 80%
22:00 -4°C° 0 mm 5 mps 748 mmHg 80%
23:00 -4°C° 0 mm 5 mps 748 mmHg 80%

Tomorrow, 22 October, Thursday

Time Temperature Precipitation Wind Pressure Humidity
00:00 -4°C° 0 mm 5 mps 748 mmHg 80%
01:00 -4°C° 0 mm 5 mps 749 mmHg 80%
02:00 -4°C° 0 mm 5 mps 749 mmHg 81%
03:00 -4°C° 0 mm 5 mps 749 mmHg 81%
04:00 -3°C° 0 mm 4 mps 749 mmHg 81%
05:00 -3°C° 0 mm 4 mps 749 mmHg 81%
06:00 -3°C° 0 mm 4 mps 749 mmHg 81%
07:00 -3°C° 0 mm 4 mps 750 mmHg 77%
08:00 -2°C° 0 mm 5 mps 750 mmHg 72%
09:00 -1°C° 0 mm 5 mps 750 mmHg 68%
10:00 -1°C° 0 mm 5 mps 750 mmHg 65%
11:00 0°C° 0 mm 5 mps 750 mmHg 62%
12:00 0°C° 0 mm 4 mps 750 mmHg 59%
13:00 0°C° 0 mm 4 mps 750 mmHg 60%
14:00 0°C° 0 mm 4 mps 750 mmHg 60%
15:00 +1°C° 0 mm 3 mps 750 mmHg 61%
16:00 +1°C° 0 mm 3 mps 750 mmHg 66%
17:00 +1°C° 0 mm 2 mps 750 mmHg 71%
18:00 -1°C° 0 mm 2 mps 750 mmHg 76%
19:00 +1°C° 0 mm 1 mps 750 mmHg 77%
20:00 +1°C° 0 mm 1 mps 750 mmHg 79%
21:00 +1°C° 0 mm 1 mps 750 mmHg 81%
22:00 +1°C° 0 mm 1 mps 749 mmHg 81%
23:00 +1°C° 0 mm 1 mps 749 mmHg 81%

Day after tomorrow, 23 October, Friday

Time Temperature Precipitation Wind Pressure Humidity
00:00 +2°C° 0 mm 1 mps 749 mmHg 81%
01:00 +2°C° 0 mm 1 mps 749 mmHg 83%
02:00 -1°C° 0 mm 2 mps 748 mmHg 86%
03:00 -1°C° 0 mm 2 mps 748 mmHg 89%
04:00 -1°C° 0 mm 2 mps 748 mmHg 91%
05:00 0°C° 0 mm 3 mps 747 mmHg 94%
06:00 0°C° 0 mm 3 mps 747 mmHg 96%
07:00 0°C° 0.1 mm 3 mps 746 mmHg 96%
08:00 0°C° 0.1 mm 4 mps 746 mmHg 96%
09:00 0°C° 0.1 mm 5 mps 745 mmHg 96%
10:00 0°C° 0.4 mm 5 mps 745 mmHg 96%
11:00 +1°C° 0.4 mm 6 mps 744 mmHg 96%
12:00 +1°C° 0.4 mm 6 mps 744 mmHg 96%
13:00 +1°C° 0.3 mm 6 mps 744 mmHg 95%
14:00 +2°C° 0.3 mm 6 mps 743 mmHg 94%
15:00 +2°C° 0.3 mm 6 mps 743 mmHg 93%
16:00 +2°C° 0.4 mm 6 mps 742 mmHg 94%
17:00 +2°C° 0.4 mm 5 mps 742 mmHg 94%
18:00 +3°C° 0.4 mm 5 mps 742 mmHg 95%
19:00 +4°C° 0.2 mm 4 mps 741 mmHg 96%
20:00 +4°C° 0.2 mm 4 mps 741 mmHg 96%
21:00 +5°C° 0.2 mm 3 mps 741 mmHg 97%
22:00 +5°C° 0 mm 4 mps 741 mmHg 97%
23:00 +6°C° 0 mm 4 mps 740 mmHg 96%

24 October, Saturday

Time Temperature Precipitation Wind Pressure Humidity
00:00 +6°C° 0 mm 4 mps 740 mmHg 96%
01:00 +6°C° 0.2 mm 4 mps 739 mmHg 96%
02:00 +7°C° 0.2 mm 4 mps 739 mmHg 95%
03:00 +7°C° 0.2 mm 4 mps 738 mmHg 95%
04:00 +7°C° 1.8 mm 5 mps 738 mmHg 96%
05:00 +7°C° 1.8 mm 5 mps 737 mmHg 96%
06:00 +7°C° 1.8 mm 5 mps 736 mmHg 96%
07:00 +8°C° 1.3 mm 6 mps 736 mmHg 94%
08:00 +8°C° 1.3 mm 7 mps 735 mmHg 92%
09:00 +9°C° 1.3 mm 8 mps 735 mmHg 90%
10:00 +9°C° 0 mm 7 mps 736 mmHg 88%
11:00 +9°C° 0 mm 7 mps 736 mmHg 85%
12:00 +9°C° 0 mm 7 mps 737 mmHg 82%
13:00 +9°C° 0 mm 7 mps 738 mmHg 82%
14:00 +9°C° 0 mm 6 mps 738 mmHg 81%
15:00 +9°C° 0 mm 6 mps 739 mmHg 80%
16:00 +9°C° 0 mm 6 mps 740 mmHg 81%
17:00 +8°C° 0 mm 5 mps 740 mmHg 81%
18:00 +8°C° 0 mm 5 mps 741 mmHg 81%
19:00 +7°C° 0 mm 5 mps 741 mmHg 84%
20:00 +7°C° 0 mm 4 mps 742 mmHg 87%
21:00 +6°C° 0 mm 4 mps 743 mmHg 89%
22:00 +6°C° 0 mm 4 mps 743 mmHg 91%
23:00 +7°C° 0 mm 3 mps 743 mmHg 92%

25 October, Sunday

Time Temperature Precipitation Wind Pressure Humidity
00:00 +5°C° 0 mm 3 mps 743 mmHg 93%
01:00 +5°C° 0 mm 3 mps 743 mmHg 93%
02:00 +6°C° 0 mm 2 mps 744 mmHg 93%
03:00 +6°C° 0 mm 2 mps 744 mmHg 93%
04:00 +6°C° 0 mm 2 mps 744 mmHg 93%
05:00 +6°C° 0 mm 2 mps 744 mmHg 92%
06:00 +7°C° 0 mm 1 mps 744 mmHg 91%
07:00 +7°C° 0 mm 1 mps 744 mmHg 90%
08:00 +7°C° 0 mm 2 mps 744 mmHg 88%
09:00 +7°C° 0 mm 2 mps 745 mmHg 86%
10:00 +8°C° 0 mm 2 mps 745 mmHg 83%
11:00 +9°C° 0 mm 2 mps 745 mmHg 79%
12:00 +10°C° 0 mm 2 mps 745 mmHg 75%
13:00 +9°C° 0 mm 2 mps 744 mmHg 76%
14:00 +9°C° 0 mm 3 mps 744 mmHg 78%
15:00 +9°C° 0 mm 3 mps 744 mmHg 79%
16:00 +9°C° 0 mm 3 mps 744 mmHg 81%
17:00 +7°C° 0 mm 4 mps 744 mmHg 84%
18:00 +7°C° 0 mm 4 mps 743 mmHg 86%
19:00 +7°C° 0.5 mm 4 mps 743 mmHg 89%
20:00 +7°C° 0.5 mm 4 mps 743 mmHg 91%
21:00 +7°C° 0.5 mm 4 mps 742 mmHg 94%
22:00 +7°C° 0.5 mm 4 mps 742 mmHg 94%
23:00 +7°C° 0.5 mm 4 mps 742 mmHg 94%

26 October, Monday

Time Temperature Precipitation Wind Pressure Humidity
00:00 +7°C° 0.5 mm 5 mps 741 mmHg 95%
01:00 +7°C° 0.3 mm 4 mps 741 mmHg 95%
02:00 +7°C° 0.3 mm 4 mps 741 mmHg 96%
03:00 +8°C° 0.3 mm 3 mps 740 mmHg 97%
04:00 +8°C° 0.1 mm 3 mps 740 mmHg 97%
05:00 +8°C° 0.1 mm 2 mps 740 mmHg 97%
06:00 +9°C° 0.1 mm 2 mps 740 mmHg 97%
07:00 +9°C° 0 mm 2 mps 740 mmHg 95%
08:00 +9°C° 0 mm 2 mps 740 mmHg 93%
09:00 +10°C° 0 mm 2 mps 740 mmHg 91%
10:00 +10°C° 0 mm 2 mps 741 mmHg 88%
11:00 +12°C° 0 mm 2 mps 741 mmHg 85%
12:00 +12°C° 0 mm 1 mps 741 mmHg 82%
13:00 +12°C° 0.1 mm 1 mps 742 mmHg 84%
14:00 +12°C° 0.1 mm 1 mps 742 mmHg 85%
15:00 +12°C° 0.1 mm 1 mps 742 mmHg 86%
16:00 +10°C° 0.1 mm 2 mps 743 mmHg 88%
17:00 +9°C° 0.1 mm 3 mps 743 mmHg 90%
18:00 +7°C° 0.1 mm 4 mps 744 mmHg 92%
19:00 +7°C° 0.1 mm 5 mps 744 mmHg 91%
20:00 +7°C° 0.1 mm 6 mps 745 mmHg 90%
21:00 +5°C° 0.1 mm 6 mps 746 mmHg 89%
22:00 +5°C° 0 mm 6 mps 746 mmHg 88%
23:00 +5°C° 0 mm 7 mps 747 mmHg 87%

27 October, Tuesday

Time Temperature Precipitation Wind Pressure Humidity
00:00 +4°C° 0 mm 7 mps 747 mmHg 85%
01:00 +4°C° 0 mm 7 mps 748 mmHg 85%
02:00 +3°C° 0 mm 6 mps 749 mmHg 85%
03:00 +2°C° 0 mm 6 mps 749 mmHg 85%
04:00 +1°C° 0 mm 6 mps 750 mmHg 85%
05:00 +1°C° 0 mm 6 mps 751 mmHg 85%
06:00 -1°C° 0 mm 6 mps 751 mmHg 85%
07:00 -1°C° 0 mm 6 mps 752 mmHg 83%
08:00 0°C° 0 mm 5 mps 752 mmHg 80%
09:00 0°C° 0 mm 5 mps 753 mmHg 78%
10:00 0°C° 0 mm 5 mps 753 mmHg 76%
11:00 +1°C° 0 mm 5 mps 754 mmHg 75%
12:00 +1°C° 0 mm 5 mps 754 mmHg 73%
13:00 +1°C° 0 mm 5 mps 754 mmHg 73%
14:00 +1°C° 0 mm 5 mps 754 mmHg 73%
15:00 +1°C° 0 mm 5 mps 755 mmHg 73%
16:00 0°C° 0 mm 4 mps 755 mmHg 76%
17:00 0°C° 0 mm 4 mps 756 mmHg 78%
18:00 -1°C° 0 mm 4 mps 756 mmHg 80%
19:00 0°C° 0 mm 3 mps 756 mmHg 81%
20:00 0°C° 0 mm 3 mps 756 mmHg 82%
21:00 -1°C° 0 mm 3 mps 757 mmHg 83%
22:00 -1°C° 0 mm 3 mps 757 mmHg 83%
23:00 -1°C° 0 mm 2 mps 757 mmHg 84%
Show more